This is the latest recevied weather packets stored in our database for station/object YO3FVR-WX. If no packets are shown the sender has not sent any weather packets the latest 10 day(s).
| Time | Temp. | Humidity | Pressure | Rain* | Wind** | Luminosity | Snow |
|---|---|---|---|---|---|---|---|
| 1788015481 | 27.22° C | 45% | 1012.4 hPa | 0 mm | - | - | - |
| 1788014881 | 27.78° C | 45% | 1012.4 hPa | 0 mm | - | - | - |
| 1788014251 | 27.22° C | 45% | 1012.6 hPa | 0 mm | - | - | - |
| 1788013621 | 27.78° C | 45% | 1012.6 hPa | 0 mm | - | - | - |
| 1788012991 | 27.78° C | 45% | 1012.8 hPa | 0 mm | - | - | - |
| 1788012391 | 27.78° C | 46% | 1012.8 hPa | 0 mm | - | - | - |
| 1788011791 | 27.78° C | 46% | 1012.7 hPa | 0 mm | - | - | - |
| 1788011161 | 27.78° C | 46% | 1013 hPa | 0 mm | - | - | - |
| 1788010531 | 27.78° C | 45% | 1013 hPa | 0 mm | - | - | - |
| 1788009901 | 27.78° C | 45% | 1013 hPa | 0 mm | - | - | - |
| 1788009301 | 28.33° C | 45% | 1013.1 hPa | 0 mm | - | - | - |
| 1788008671 | 28.33° C | 44% | 1013.3 hPa | 0 mm | - | - | - |
| 1788008071 | 29.44° C | 43% | 1013.4 hPa | 0 mm | - | - | - |
| 1788007471 | 27.78° C | 46% | 1013.4 hPa | 0 mm | - | - | - |
| 1788006841 | 26.67° C | 47% | 1013.4 hPa | 0 mm | - | - | - |
| 1788006211 | 26.67° C | 48% | 1013.6 hPa | 0 mm | - | - | - |
| 1788005581 | 26.67° C | 48% | 1013.7 hPa | 0 mm | - | - | - |
| 1788004951 | 26.67° C | 48% | 1013.9 hPa | 0 mm | - | - | - |
| 1788004351 | 26.11° C | 49% | 1013.9 hPa | 0 mm | - | - | - |
| 1788003721 | 26.11° C | 49% | 1013.9 hPa | 0 mm | - | - | - |
| 1788003121 | 26.11° C | 50% | 1014.1 hPa | 0 mm | - | - | - |
| 1788002521 | 26.11° C | 51% | 1014.3 hPa | 0 mm | - | - | - |
| 1788001891 | 25.56° C | 50% | 1014.5 hPa | 0 mm | - | - | - |
| 1788001291 | 25.56° C | 51% | 1014.6 hPa | 0 mm | - | - | - |
| 1788000691 | 25.56° C | 52% | 1014.7 hPa | 0 mm | - | - | - |
* Rain latest hour (hover to see other rain measurements)
** Current wind speed in m/s (hover to see current wind gust speed)